GW4435 Weather Reports


time (UTC)temp
F
wind
direction
speed
knots
gust
knots
rain 1hr
in
rain 24hr
in
rain mn
in
humidity
%
barometer
mb
20260510105004 53 358 0.9 2.6 0.00 0.00 0.00 94 1015.5
20260510104504 53 317 1.7 2.6 0.00 0.00 0.00 94 1015.4
20260510103005 53 339 1.7 1.7 0.00 0.00 0.00 92 1015.1
20260510102504 53 42 0.9 1.7 0.00 0.00 0.00 93 1015.0
20260510102004 53 323 0.9 1.7 0.00 0.00 0.00 93 1014.9
20260510101004 52 323 0.9 2.6 0.00 0.00 0.00 94 1014.9
20260510100505 53 326 0.9 1.7 0.00 0.00 0.00 93 1014.8
20260510100005 53 335 1.7 2.6 0.00 0.00 0.00 92 1014.7
20260510095504 53 294 0.0 0.9 0.00 0.00 0.00 92 1014.6
20260510095004 53 84 0.9 1.7 0.00 0.00 0.00 92 1014.6
20260510094504 53 329 0.9 1.7 0.00 0.00 0.00 93 1014.6
20260510094004 53 354 0.0 1.7 0.00 0.00 0.00 93 1014.6
20260510093504 53 352 1.7 2.6 0.00 0.00 0.00 92 1014.6
20260510093004 54 340 1.7 2.6 0.00 0.00 0.00 92 1014.4
20260510092505 54 336 0.9 1.7 0.00 0.00 0.00 91 1014.4
20260510092004 54 196 0.9 1.7 0.00 0.00 0.00 91 1014.4
20260510091504 54 92 0.0 0.9 0.00 0.00 0.00 91 1014.5
20260510090506 54 220 0.0 0.0 0.00 0.00 0.00 90 1014.5
20260510090004 54 220 0.0 0.0 0.00 0.00 0.00 90 1014.5
20260510085504 54 216 0.9 1.7 0.00 0.00 0.00 90 1014.6
20260510085004 54 288 0.0 1.7 0.00 0.00 0.00 90 1014.6
20260510084504 54 15 0.9 1.7 0.00 0.00 0.00 90 1014.6
20260510084004 54 158 0.0 1.7 0.00 0.00 0.00 90 1014.6
20260510083504 53 181 0.9 1.7 0.00 0.00 0.00 91 1014.5
20260510083005 53 183 0.9 2.6 0.00 0.00 0.00 91 1014.5
20260510082504 53 323 0.0 0.9 0.00 0.00 0.00 92 1014.5
20260510082005 52 347 1.7 1.7 0.00 0.00 0.00 93 1014.5
20260510081504 52 77 0.9 2.6 0.00 0.00 0.00 93 1014.6
20260510081006 52 332 1.7 2.6 0.00 0.00 0.00 94 1014.4
20260510080504 51 298 1.7 2.6 0.00 0.00 0.00 95 1014.3
20260510080004 51 345 0.9 2.6 0.00 0.00 0.00 94 1014.3
20260510075504 52 338 1.7 2.6 0.00 0.00 0.00 94 1014.1
20260510075004 53 321 1.7 2.6 0.00 0.00 0.00 93 1013.9
20260510074505 53 326 0.9 2.6 0.00 0.00 0.00 92 1013.8
20260510074004 54 303 0.9 1.7 0.00 0.00 0.00 90 1013.8
20260510073504 54 323 0.0 0.9 0.00 0.00 0.00 91 1013.7
20260510073005 54 74 0.0 0.9 0.00 0.00 0.00 90 1013.6
20260510072504 54 300 0.9 1.7 0.00 0.00 0.00 90 1013.6
20260510071006 53 314 1.7 2.6 0.00 0.00 0.00 92 1013.8
20260510070504 53 334 1.7 2.6 0.00 0.00 0.00 92 1013.8
20260510065505 53 310 1.7 2.6 0.00 0.00 0.00 92 1013.8
20260510064505 53 335 1.7 2.6 0.00 0.00 0.00 92 1013.8
20260510064004 54 340 2.6 2.6 0.00 0.00 0.00 91 1013.8
20260510063005 54 347 0.9 1.7 0.00 0.00 0.00 91 1013.8
20260510062505 54 314 1.7 2.6 0.00 0.00 0.00 91 1013.9
20260510062004 54 328 1.7 2.6 0.00 0.00 0.00 90 1013.9
20260510061504 55 338 1.7 2.6 0.00 0.00 0.00 88 1014.0
20260510061004 56 339 1.7 2.6 0.00 0.00 0.00 86 1014.0
20260510060504 55 356 0.9 1.7 0.00 0.00 0.00 84 1014.0
20260510060005 55 298 0.0 0.9 0.00 0.00 0.00 89 1014.0
20260510055004 55 344 1.7 2.6 0.00 0.00 0.00 90 1014.0
20260510054505 56 344 0.9 1.7 0.00 0.00 0.00 86 1014.0
20260510054004 56 322 0.9 0.9 0.00 0.00 0.00 87 1014.0
20260510053004 56 340 0.9 1.7 0.00 0.00 0.00 88 1013.9
20260510052506 56 26 0.0 0.9 0.00 0.00 0.00 89 1013.9
20260510052004 56 198 0.9 1.7 0.00 0.00 0.00 89 1013.8
20260510051504 55 79 0.0 0.9 0.00 0.00 0.00 89 1013.8
20260510051004 55 38 0.9 2.6 0.00 0.00 0.00 89 1013.6
20260510045504 57 327 1.7 2.6 0.00 0.00 0.00 87 1013.8
20260510045005 57 331 0.9 1.7 0.00 0.00 0.00 86 1013.7
20260510044504 57 327 0.9 1.7 0.00 0.00 0.00 88 1013.6
20260510044005 57 329 0.9 2.6 0.00 0.00 0.00 87 1013.6
20260510043504 58 0 1.7 2.6 0.00 0.00 0.00 86 1013.5
20260510043005 59 336 1.7 2.6 0.00 0.00 0.00 79 1013.4
20260510042505 60 20 0.0 0.9 0.00 0.00 0.00 78 1013.3
20260510042004 60 142 0.0 1.7 0.00 0.00 0.00 75 1013.3
20260510041504 60 141 0.0 1.7 0.00 0.00 0.00 75 1013.3
20260510040504 60 201 0.9 1.7 0.00 0.00 0.00 80 1013.3
20260510040005 60 168 0.9 1.7 0.00 0.00 0.00 78 1013.3
20260510035504 60 177 0.0 1.7 0.00 0.00 0.00 80 1013.4
20260510035005 60 223 0.9 2.6 0.00 0.00 0.00 80 1013.4
20260510034504 60 140 1.7 2.6 0.00 0.00 0.00 79 1013.2
20260510034006 60 112 0.0 1.7 0.00 0.00 0.00 81 1013.0
20260510033504 60 196 0.0 1.7 0.00 0.00 0.00 81 1012.9
20260510033004 60 335 0.0 0.9 0.00 0.00 0.00 81 1013.0
20260510032504 61 321 0.9 1.7 0.00 0.00 0.00 81 1013.0
20260510032004 61 310 0.0 1.7 0.00 0.00 0.00 80 1013.0
20260510031504 61 345 0.9 1.7 0.00 0.00 0.00 80 1012.9
20260510031005 61 326 0.9 1.7 0.00 0.00 0.00 79 1012.8
20260510030504 61 317 1.7 2.6 0.00 0.00 0.00 80 1012.8
20260510030004 61 342 1.7 2.6 0.00 0.00 0.00 80 1012.7
20260510025505 62 328 1.7 2.6 0.00 0.00 0.00 79 1012.6
20260510025004 62 333 1.7 2.6 0.00 0.00 0.00 78 1012.5
20260510024504 63 329 1.7 2.6 0.00 0.00 0.00 77 1012.4
20260510024004 63 337 1.7 2.6 0.00 0.00 0.00 77 1012.4
20260510023504 64 335 1.7 2.6 0.00 0.00 0.00 75 1012.2
20260510023004 65 335 1.7 2.6 0.00 0.00 0.00 70 1012.2
20260510022505 66 161 0.9 1.7 0.00 0.00 0.00 65 1012.0
20260510022005 66 58 0.0 0.9 0.00 0.00 0.00 64 1011.9
20260510020504 68 106 0.0 0.9 0.00 0.00 0.00 61 1011.5
20260510020005 69 103 0.0 0.9 0.00 0.00 0.00 59 1011.1
20260510015505 70 86 0.0 0.9 0.00 0.00 0.00 57 1011.1
20260510014504 70 125 0.0 1.7 0.00 0.00 0.00 54 1011.1
20260510013006 71 120 0.9 1.7 0.00 0.00 0.00 52 1011.0
20260510012504 72 142 0.9 2.6 0.00 0.00 0.00 52 1011.0
20260510012004 72 149 1.7 2.6 0.00 0.00 0.00 52 1011.0
20260510011504 72 139 0.9 1.7 0.00 0.00 0.00 52 1010.9
20260510011004 73 126 0.0 1.7 0.00 0.00 0.00 52 1010.9
20260510010004 73 137 0.9 1.7 0.00 0.00 0.00 50 1010.9
20260510005505 74 150 1.7 2.6 0.00 0.00 0.00 50 1010.8
20260510005004 74 152 1.7 2.6 0.00 0.00 0.00 49 1010.8
20260510004004 75 160 1.7 2.6 0.00 0.00 0.00 48 1010.7
20260510003005 76 156 0.9 2.6 0.00 0.00 0.00 48 1010.7
20260510002505 76 145 0.0 1.7 0.00 0.00 0.00 49 1010.7
20260510002005 77 172 0.0 2.6 0.00 0.00 0.00 48 1010.7
20260510001504 77 167 0.9 2.6 0.00 0.00 0.00 48 1010.6
20260510001004 77 191 0.9 2.6 0.00 0.00 0.00 48 1010.6
20260510000004 78 185 0.9 2.6 0.00 0.00 0.00 46 1010.7
20260509235506 78 160 0.9 2.6 0.00 0.00 0.00 44 1010.8
20260509235005 79 175 1.7 4.3 0.00 0.00 0.00 47 1010.7
20260509234506 79 193 0.9 4.3 0.00 0.00 0.00 45 1010.8
20260509234004 79 192 0.9 4.3 0.00 0.00 0.00 44 1010.7
20260509233005 78 199 1.7 6.1 0.00 0.00 0.00 46 1010.7
20260509232505 78 189 2.6 7.8 0.00 0.00 0.00 44 1010.7
20260509232005 78 202 2.6 6.1 0.00 0.00 0.00 44 1010.7
20260509231504 79 210 0.0 5.2 0.00 0.00 0.00 50 1010.5
20260509231004 80 191 1.7 5.2 0.00 0.00 0.00 46 1010.6
20260509230504 80 174 1.7 5.2 0.00 0.00 0.00 45 1010.9
20260509230005 79 164 2.6 5.2 0.00 0.00 0.00 44 1010.8
20260509225505 80 167 2.6 6.1 0.00 0.00 0.00 43 1010.9
20260509225005 80 164 2.6 6.1 0.00 0.00 0.00 43 1010.9
20260509224505 80 161 2.6 5.2 0.00 0.00 0.00 42 1010.8
20260509223505 79 167 1.7 5.2 0.00 0.00 0.00 46 1010.5
20260509223006 79 165 0.9 2.6 0.00 0.00 0.00 46 1010.6
20260509222506 79 178 2.6 7.8 0.00 0.00 0.00 43 1010.8
20260509221505 80 269 0.9 2.6 0.00 0.00 0.00 40 1010.8
20260509221005 81 235 1.7 4.3 0.00 0.00 0.00 43 1010.7
20260509220004 81 264 1.7 5.2 0.00 0.00 0.00 38 1010.8
20260509214504 82 211 1.7 6.1 0.00 0.00 0.00 38 1011.0
20260509214004 81 251 0.9 2.6 0.00 0.00 0.00 37 1011.0
20260509213504 81 222 1.7 4.3 0.00 0.00 0.00 42 1010.9
20260509213004 80 241 1.7 2.6 0.00 0.00 0.00 42 1010.8
20260509212504 80 235 0.9 4.3 0.00 0.00 0.00 40 1010.8
20260509212004 81 262 1.7 2.6 0.00 0.00 0.00 40 1010.9
20260509211504 82 257 1.7 4.3 0.00 0.00 0.00 38 1011.0
20260509210505 82 227 1.7 4.3 0.00 0.00 0.00 37 1011.2
20260509210004 81 322 2.6 6.1 0.00 0.00 0.00 36 1011.3
20260509205506 81 218 2.6 6.1 0.00 0.00 0.00 36 1011.4
20260509205005 82 221 1.7 6.1 0.00 0.00 0.00 38 1011.4
20260509204505 81 164 1.7 6.1 0.00 0.00 0.00 35 1011.4
20260509204004 81 214 0.9 4.3 0.00 0.00 0.00 37 1011.3
20260509203504 80 232 0.9 2.6 0.00 0.00 0.00 40 1011.2
20260509203004 80 159 0.9 2.6 0.00 0.00 0.00 37 1011.5
20260509202504 80 164 0.9 4.3 0.00 0.00 0.00 36 1011.6
20260509202004 81 321 0.9 2.6 0.00 0.00 0.00 38 1011.6
20260509201505 81 27 1.7 7.0 0.00 0.00 0.00 38 1011.6
20260509201005 81 294 2.6 7.0 0.00 0.00 0.00 39 1011.6
20260509200504 81 280 2.6 6.1 0.00 0.00 0.00 38 1011.8
20260509195505 81 353 1.7 6.1 0.00 0.00 0.00 37 1012.0
20260509195005 81 80 0.9 5.2 0.00 0.00 0.00 36 1011.9
20260509194505 82 239 1.7 6.1 0.00 0.00 0.00 38 1012.0
20260509194005 82 232 1.7 5.2 0.00 0.00 0.00 39 1011.9
20260509193504 81 17 0.9 5.2 0.00 0.00 0.00 41 1011.8
20260509192505 80 258 1.7 4.3 0.00 0.00 0.00 38 1012.0
20260509192004 81 248 0.9 4.3 0.00 0.00 0.00 39 1012.0
20260509191507 80 258 0.9 4.3 0.00 0.00 0.00 40 1011.9
20260509191004 81 277 1.7 6.1 0.00 0.00 0.00 40 1012.0
20260509190504 80 341 2.6 7.0 0.00 0.00 0.00 40 1011.9
20260509190006 80 282 2.6 7.8 0.00 0.00 0.00 39 1011.9
20260509185504 81 266 1.7 7.8 0.00 0.00 0.00 37 1012.1
20260509185006 81 290 2.6 6.1 0.00 0.00 0.00 36 1012.2
20260509184504 81 261 1.7 5.2 0.00 0.00 0.00 37 1012.3
20260509183505 80 286 1.7 4.3 0.00 0.00 0.00 38 1012.2
20260509183004 80 273 0.9 6.1 0.00 0.00 0.00 37 1012.2
20260509181504 81 0 1.7 7.0 0.00 0.00 0.00 39 1012.1
20260509181004 81 356 1.7 5.2 0.00 0.00 0.00 37 1012.3
20260509180505 81 357 0.9 2.6 0.00 0.00 0.00 40 1012.3
20260509170005 76 142 1.7 6.1 0.00 0.00 0.00 47 1012.1
20260509165506 77 221 3.5 7.0 0.00 0.00 0.00 50 1012.1
20260509165005 76 311 0.9 5.2 0.00 0.00 0.00 49 1012.1
20260509164504 76 221 0.9 5.2 0.00 0.00 0.00 51 1012.1
20260509164004 76 268 1.7 4.3 0.00 0.00 0.00 53 1012.1
20260509163504 75 249 2.6 5.2 0.00 0.00 0.00 54 1012.1
20260509162504 75 251 1.7 5.2 0.00 0.00 0.00 60 1012.0
20260509162004 74 195 1.7 5.2 0.00 0.00 0.00 60 1012.0
20260509161504 74 268 0.9 4.3 0.00 0.00 0.00 61 1012.0
20260509161005 73 282 1.7 5.2 0.00 0.00 0.00 61 1012.0
20260509155505 72 316 1.7 4.3 0.00 0.00 0.00 63 1012.0
20260509155006 72 259 1.7 4.3 0.00 0.00 0.00 63 1012.0
20260509154504 71 14 0.9 4.3 0.00 0.00 0.00 67 1012.1
20260509154006 71 319 0.9 5.2 0.00 0.00 0.00 68 1012.1
20260509153004 70 314 1.7 5.2 0.00 0.00 0.00 70 1012.1
20260509152504 70 29 0.9 2.6 0.00 0.00 0.00 69 1012.0
20260509152004 69 322 1.7 4.3 0.00 0.00 0.00 71 1012.0
20260509151504 69 308 2.6 6.1 0.00 0.00 0.00 71 1012.0
20260509150504 68 40 1.7 5.2 0.00 0.00 0.00 74 1012.0
20260509150006 67 316 1.7 5.2 0.00 0.00 0.00 76 1012.1
20260509145504 66 258 1.7 5.2 0.00 0.00 0.00 77 1012.1
20260509145004 66 323 2.6 5.2 0.00 0.00 0.00 77 1012.1
20260509144504 65 285 1.7 5.2 0.00 0.00 0.00 78 1012.1
20260509144004 65 354 0.9 5.2 0.00 0.00 0.00 80 1012.2
20260509143005 64 305 2.6 6.1 0.00 0.00 0.00 81 1012.2
20260509142505 64 289 1.7 6.1 0.00 0.00 0.00 83 1012.2
20260509140505 62 355 1.7 5.2 0.00 0.00 0.00 85 1011.9
20260509140005 62 252 1.7 5.2 0.00 0.00 0.00 85 1011.9
20260509135008 62 181 1.7 4.3 0.00 0.00 0.00 86 1011.8
20260509134505 62 254 1.7 2.6 0.00 0.00 0.00 85 1011.8
20260509134005 63 303 1.7 5.2 0.00 0.00 0.00 84 1011.8
20260509133005 63 119 0.0 1.7 0.00 0.00 0.00 83 1011.7
20260509132505 63 58 0.9 4.3 0.00 0.00 0.00 83 1011.7
20260509132004 61 82 0.9 1.7 0.00 0.00 0.00 86 1011.6
20260509131506 60 5 0.0 2.6 0.00 0.00 0.00 89 1011.6
20260509131005 59 106 0.9 2.6 0.00 0.00 0.00 90 1011.6
20260509130504 59 193 1.7 2.6 0.00 0.00 0.00 90 1011.6
20260509130005 59 184 0.9 2.6 0.00 0.00 0.00 89 1011.6
20260509125506 57 128 0.9 0.9 0.00 0.00 0.00 94 1011.6
20260509125004 56 338 0.9 2.6 0.00 0.00 0.00 95 1011.5
20260509124505 55 55 0.0 1.7 0.00 0.00 0.00 97 1011.5
20260509124005 54 338 0.0 0.9 0.00 0.00 0.00 98 1011.4
20260509123505 53 68 0.0 1.7 0.00 0.00 0.00 99 1011.4
20260509123005 52 280 0.0 1.7 0.00 0.00 0.00 99 1011.4
20260509122505 51 306 0.9 1.7 0.00 0.00 0.00 99 1011.4
20260509121505 50 340 0.9 2.6 0.00 0.00 0.00 99 1011.2
20260509121006 49 316 0.0 1.7 0.00 0.00 0.00 99 1011.1
20260509120504 48 345 0.9 1.7 0.00 0.00 0.00 99 1011.1
20260509120004 48 333 1.7 1.7 0.00 0.00 0.00 99 1011.0
20260509115504 48 345 0.9 1.7 0.00 0.00 0.00 99 1011.0
20260509115005 47 328 0.9 1.7 0.00 0.00 0.00 99 1011.0
20260509114504 47 327 0.9 1.7 0.00 0.00 0.00 99 1010.8
20260509114005 47 309 0.9 1.7 0.00 0.00 0.00 99 1010.7
20260509113505 48 341 0.9 1.7 0.00 0.00 0.00 99 1010.7
20260509112006 48 344 0.9 2.6 0.00 0.00 0.00 99 1010.6
20260509111504 48 305 0.0 1.7 0.00 0.00 0.00 99 1010.5
20260509111006 49 201 1.7 2.6 0.00 0.00 0.00 99 1010.5
20260509110004 49 176 0.0 0.9 0.00 0.00 0.00 99 1010.4
20260509105504 49 111 0.0 0.9 0.00 0.00 0.00 99 1010.4